Location: Chervonnoye
(48.6000°N, 34.4000°E)
Time: 14:38:02
(UTC+00:00)

Cosmos 2154 Rocket - Pass Details

Date: 23 November 2020
Orbit: 965 x 997 km, 82.9° (Epoch: 27 January)

Event Time Altitude Azimuth Distance (km) Brightness Sun altitude
Rises 15:03:50 0° 350° (N) 3,709 6.9 -11.3°
Reaches altitude 10° 15:06:22 10° 351° (N) 2,761 6.3 -11.6°
Maximum altitude 15:12:43 88° 80° (E) 1,002 4.0 -12.7°
Drops below altitude 10° 15:19:05 10° 172° (S) 2,756 6.5 -13.7°
Sets 15:21:36 0° 172° (S) 3,702 7.1 -14.1°
